View from above orbital plane
|
View from above satellite
|
Ground track
|
The orbit data is extracted from the following two-line orbital elements,
1 20466U 90010B 21107.83592314 .00000075 00000-0 65021-5 0 9995
2 20466 82.5014 141.9251 0021871 59.9578 300.3802 14.81418817663795
Epoch (UTC): | 17 April 2021 20:03:43 |
Eccentricity: | 0.0021871 |
inclination: | 82.5014° |
perigee height: | 609 km |
apogee height: | 640 km |
right ascension of ascending node: | 141.9251° |
argument of perigee: | 59.9578° |
revolutions per day: | 14.81418817 |
mean anomaly at epoch: | 300.3802° |
orbit number at epoch: | 66379 |
The dashed part of the orbit path shows where the satellite is in the earth's shadow,
|
|